[[{"header":{"parameterUnit":"m.s-1","parameterCategory":1,"la1":30.2991,"la2":30.254,"lo1":-89.0895,"lo2":-89.0444,"dy":0.0017,"dx":0.0017,"nx":28,"ny":28,"refTime":"2023-09-28T03:00:00:Z","depth":0,"parameterNumber":2,"parameterNumberName":"U-component_of_WINDS"},"data":[0,0,0,0,0,0,0,0,0,0,0,0,0,0,0,0,0,0,0,0,0,0,0,0,0,0,0,0,0,0,0,0,0,0,0,0,0,0,0,0,0,0,0,0,0,0,0,0,0,0,0,0,0,0,0,0,0,0,-6.338,-6.3381,0,-6.3499,-6.35,-6.3502,-6.3389,-6.3384,-6.338,-6.3375,-6.3499,-6.3506,-6.3514,0,0,0,0,0,0,0,0,0,0,0,0,0,-6.3055,-6.3061,-6.3379,-6.3381,-6.3382,-6.3499,-6.35,-6.3502,-6.3389,-6.3384,-6.3378,-6.3373,-6.3496,-6.3505,-6.3514,0,0,0,0,0,0,0,0,0,0,0,0,0,-6.3187,-6.3063,-6.3379,-6.334,-6.3338,-6.3499,-6.3501,-6.3503,-6.3391,-6.3384,-6.3377,-6.3371,-6.3494,-6.3504,-6.3516,-6.3721,0,0,-6.355,-6.3555,0,0,0,0,0,0,0,0,-6.318,-6.3199,-6.3344,-6.3343,-6.3341,-6.3422,-6.3431,-6.3576,-6.3392,-6.3371,-6.3375,-6.3367,-6.3479,-6.3491,-6.3528,-6.3727,-6.3732,-6.3551,-6.3558,-6.3563,-6.3566,0,0,0,0,0,0,0,-6.3171,-6.3193,-6.3427,-6.3347,-6.3345,-6.3317,-6.3328,-6.3458,-6.3461,-6.3372,-6.3364,-6.338,-6.3477,-6.3518,-6.353,-6.3734,-6.3551,-6.3561,-6.3568,-6.3572,-6.4108,-6.4115,0,0,0,0,0,0,-6.3166,-6.3187,-6.3423,-6.343,-6.3242,-6.3328,-6.3341,-6.3403,-6.346,-6.3462,-6.3385,-6.3374,-6.3502,-6.3517,-6.3534,-6.3779,-6.3563,-6.3573,-6.358,-6.41,-6.4109,-6.4117,0,0,0,0,0,0,-6.3159,-6.3188,-6.3418,-6.3306,-6.3334,-6.3341,-6.3412,-6.3409,-6.345,-6.347,-6.347,-6.3427,-6.3497,-6.3518,-6.3675,-6.3782,-6.3578,-6.3588,-6.4091,-6.4103,-6.4113,-6.427,0,0,0,0,0,0,-6.315,-6.3186,-6.3264,-6.3309,-6.334,-6.3558,-6.3418,-6.3416,-6.3469,-6.3456,-6.3509,-6.3511,-6.3493,-6.3659,-6.3687,-6.3793,-6.3597,-6.4082,-6.4097,-6.411,-6.4255,-6.4285,-6.4311,0,0,0,0,0,-6.3139,-6.3303,-6.3269,-6.3298,-6.3437,-6.3564,-6.3581,-6.3558,-6.3478,-6.3557,-6.357,-6.3509,-6.3766,-6.3676,-6.3706,-6.3818,-6.4075,-6.4092,-6.4109,-6.4243,-6.4279,-6.431,0,0,0,0,0,0,-6.3271,-6.3309,-6.327,-6.3454,-6.3507,-6.3544,-6.3643,-6.3597,-6.3673,-6.3657,-6.3625,-6.3638,-6.3804,-6.3826,-6.3726,-6.402,-6.3908,-6.3931,-6.3999,-6.4034,-6.4061,-6.4052,-6.3607,0,0,0,0,0,-6.3321,-6.3421,-6.3448,-6.3608,-6.3636,-6.3635,-6.3689,-6.3666,-6.372,-6.3741,-6.3766,-6.382,-6.3913,-6.3974,-6.4061,-6.4258,-6.4268,-6.435,-6.4377,-6.44,-6.4421,-6.4527,-6.4564,-6.4173,-6.4172,-6.4172,0,0,-6.3427,-6.346,-6.3524,-6.3635,-6.3673,-6.3777,-6.3655,-6.3769,-6.3846,-6.3759,-6.3909,-6.3929,-6.3987,-6.4166,-6.4245,-6.4189,-6.4531,-6.4421,-6.4439,-6.4448,-6.4549,-6.4586,-6.4619,-6.4184,-6.4182,-6.418,0,0,-6.3672,-6.3707,-6.3843,-6.3884,-6.3943,-6.3941,-6.3974,-6.402,-6.403,-6.4179,-6.4116,-6.4207,-6.4367,-6.4412,-6.4455,-6.4718,-6.4666,-6.4747,-6.4892,-6.4996,-6.5027,-6.5054,-6.5149,-6.5183,-6.4768,-6.4768,-6.4769,0,-6.3795,-6.3949,-6.392,-6.4039,-6.409,-6.4016,-6.4154,-6.4195,-6.428,-6.4317,-6.4253,-6.4453,-6.4487,-6.4675,-6.4739,-6.4777,-6.4814,-6.4741,-6.5025,-6.5052,-6.5077,-6.5167,-6.5202,-6.4778,-6.4777,-6.4776,-6.4775,0,-6.4098,-6.4206,-6.4309,-6.4393,-6.4455,-6.4584,-6.4575,-6.4641,-6.4613,-6.4619,-6.4773,-6.4811,-6.4904,-6.4947,-6.4921,-6.5132,-6.5096,-6.5029,-6.4916,-6.5124,-6.5208,-6.5242,-6.4792,-6.4788,-6.4785,-6.4783,0,0,-6.443,-6.4495,-6.4534,-6.4571,-6.4631,-6.4714,-6.4839,-6.493,-6.4988,-6.5049,-6.5154,-6.5292,-6.5231,-6.5281,-6.5259,-6.5351,-6.5557,-6.5273,-6.5273,-6.5325,-6.5793,-6.5843,-6.5883,-6.5522,-6.5529,-6.5534,-6.5788,0,-6.4677,-6.4895,-6.4872,-6.508,-6.5179,-6.511,-6.5219,-6.5268,-6.5277,-6.5363,-6.5372,-6.5471,-6.5382,-6.5412,-6.5499,-6.5513,-6.5651,-6.5495,-6.5621,-6.5625,-6.5608,-6.5927,-6.598,-6.6218,-6.5821,-6.5826,-6.583,0,-6.4994,-6.5067,-6.5284,-6.5329,-6.537,-6.5469,-6.555,-6.5633,-6.5688,-6.5687,-6.5744,-6.5706,-6.5833,-6.5717,-6.5892,-6.5786,-6.5836,-6.5851,-6.586,-6.5871,-6.5741,-6.5947,-6.6293,-6.6329,-6.5881,-6.5877,-6.5874,0,-6.5215,-6.5367,-6.5516,-6.555,-6.5606,-6.5678,-6.5704,-6.5752,-6.5808,-6.588,-6.5916,-6.6002,-6.6049,-6.6117,-6.6104,-6.602,-6.6283,-6.6165,-6.6287,-6.6288,-6.6346,-6.6343,-6.6706,-6.6378,-6.6377,-6.6377,-6.6376,0,-6.5494,-6.563,-6.5616,-6.5709,-6.5859,-6.5832,-6.5982,-6.6,-6.6043,-6.6138,-6.6083,-6.6174,-6.6151,-6.6241,-6.6232,-6.6379,-6.64,-6.6404,-6.64,-6.641,-6.6409,-6.6442,-6.6426,-6.6386,-6.6384,-6.6382,-6.6381,0,-6.5766,-6.5762,-6.5921,-6.5961,-6.5975,-6.6084,-6.6118,-6.6206,-6.621,-6.6331,-6.6358,-6.6365,-6.6468,-6.6462,-6.6578,-6.6572,-6.6753,-6.673,-6.6735,-6.673,-6.6853,-6.6842,-6.725,-6.7303,-6.6941,-6.6944,-6.6947,0,-6.5945,-6.6047,-6.6099,-6.6158,-6.619,-6.6286,-6.6343,-6.6321,-6.6383,-6.6453,-6.6532,-6.663,-6.6707,-6.6876,-6.6892,-6.6981,-6.6959,-6.7096,-6.6972,-6.6979,-6.6962,-6.6956,-6.6967,-6.7121,-6.7125,-6.7128,-6.7131,0,-6.6262,-6.6255,-6.6339,-6.6423,-6.6493,-6.6558,-6.6618,-6.667,-6.6653,-6.6726,-6.683,-6.689,-6.7009,-6.7108,-6.7193,-6.7221,-6.7175,-6.717,-6.7203,-6.7214,-6.7213,-6.7215,-6.6802,-6.7161,-6.7158,-6.7155,-6.7154,-6.7153,-6.6493,-6.6581,-6.6631,-6.6727,-6.6769,-6.6826,-6.691,-6.6925,-6.7012,-6.7106,-6.7088,-6.7206,-6.7258,-6.7368,-6.7404,-6.7496,-6.7447,-6.7495,-6.7507,-6.752,-6.7534,-6.7198,-6.7512,-6.7511,-6.751,-6.7509,-6.7509,0,-6.6808,-6.6836,-6.6925,-6.701,-6.7085,-6.7034,-6.7097,-6.7164,-6.7268,-6.7321,-6.7398,-6.7518,-6.7614,-6.7637,-6.7729,-6.7799,-6.778,-6.7824,-6.7818,-6.7826,-6.7572,-6.7535,-6.7837,-6.7837,-6.7837,-6.7837,-6.7837,-6.7837,-6.698,-6.7127,-6.7127,-6.7295,-6.7322,-6.7437,-6.7477,-6.753,-6.7572,-6.7709,-6.7787,-6.7802,-6.7843,-6.7938,-6.8023,-6.8028,-6.8065,-6.8118,-6.8114,-6.7877,-6.7844,-6.7812,-6.7777,-6.8126,-6.8126,-6.836,-6.8362,-6.8364]},{"header":{"parameterUnit":"m.s-1","parameterCategory":1,"la1":30.2991,"la2":30.254,"lo1":-89.0895,"lo2":-89.0444,"dy":0.0017,"dx":0.0017,"nx":28,"ny":28,"refTime":"2023-09-28T03:00:00:Z","depth":0,"parameterNumber":3,"parameterNumberName":"V-component_of_WINDS"},"data":[0,0,0,0,0,0,0,0,0,0,0,0,0,0,0,0,0,0,0,0,0,0,0,0,0,0,0,0,0,0,0,0,0,0,0,0,0,0,0,0,0,0,0,0,0,0,0,0,0,0,0,0,0,0,0,0,0,0,-1.8155,-1.8155,0,-1.8133,-1.8133,-1.8133,-1.8121,-1.8121,-1.8121,-1.8121,-1.8097,-1.8097,-1.8096,0,0,0,0,0,0,0,0,0,0,0,0,0,-1.8185,-1.8185,-1.8155,-1.8155,-1.8155,-1.8133,-1.8133,-1.8133,-1.8121,-1.8121,-1.8121,-1.8121,-1.8098,-1.8097,-1.8096,0,0,0,0,0,0,0,0,0,0,0,0,0,-1.8169,-1.8185,-1.8156,-1.8147,-1.8146,-1.8133,-1.8133,-1.8133,-1.8121,-1.8121,-1.8121,-1.8121,-1.8098,-1.8097,-1.8096,-1.8091,0,0,-1.8093,-1.8093,0,0,0,0,0,0,0,0,-1.8169,-1.8167,-1.8148,-1.8147,-1.8146,-1.813,-1.8135,-1.8119,-1.8121,-1.813,-1.8121,-1.8121,-1.8108,-1.8106,-1.8102,-1.809,-1.8089,-1.8093,-1.8093,-1.8092,-1.8092,0,0,0,0,0,0,0,-1.8171,-1.8168,-1.8147,-1.8148,-1.8147,-1.8143,-1.814,-1.8132,-1.812,-1.813,-1.8129,-1.8126,-1.8108,-1.8103,-1.8102,-1.8088,-1.8093,-1.8092,-1.8092,-1.8092,-1.8067,-1.8067,0,0,0,0,0,0,-1.8173,-1.8169,-1.8147,-1.8146,-1.8158,-1.8142,-1.814,-1.8135,-1.812,-1.8117,-1.8126,-1.8126,-1.8105,-1.8103,-1.8101,-1.8092,-1.8092,-1.8091,-1.8091,-1.8068,-1.8067,-1.8067,0,0,0,0,0,0,-1.8174,-1.8172,-1.8148,-1.8157,-1.8154,-1.8142,-1.8137,-1.8135,-1.813,-1.8117,-1.8115,-1.8124,-1.8105,-1.8102,-1.8093,-1.8091,-1.8091,-1.809,-1.8068,-1.8067,-1.8067,-1.8075,0,0,0,0,0,0,-1.8175,-1.8172,-1.8171,-1.8157,-1.8154,-1.8142,-1.8137,-1.8134,-1.8129,-1.8128,-1.8115,-1.8112,-1.8105,-1.8094,-1.8092,-1.809,-1.8089,-1.8068,-1.8068,-1.8067,-1.8075,-1.8075,-1.8075,0,0,0,0,0,-1.8176,-1.8174,-1.8171,-1.8168,-1.8152,-1.8142,-1.8139,-1.813,-1.8129,-1.8127,-1.8118,-1.8113,-1.8092,-1.8093,-1.8091,-1.8088,-1.8068,-1.8068,-1.8067,-1.8075,-1.8075,-1.8075,0,0,0,0,0,0,-1.8188,-1.8172,-1.8168,-1.8162,-1.8153,-1.814,-1.8137,-1.8132,-1.8123,-1.8122,-1.8111,-1.8108,-1.81,-1.8093,-1.8095,-1.8081,-1.8079,-1.8078,-1.8085,-1.8086,-1.8086,-1.8087,-1.8089,0,0,0,0,0,-1.819,-1.8183,-1.817,-1.8165,-1.8161,-1.815,-1.8145,-1.8139,-1.8129,-1.8125,-1.8116,-1.8106,-1.8096,-1.8091,-1.8082,-1.8074,-1.8069,-1.807,-1.8071,-1.8071,-1.807,-1.8063,-1.8062,-1.8067,-1.8067,-1.8067,0,0,-1.8193,-1.8184,-1.8181,-1.8167,-1.816,-1.8152,-1.8147,-1.814,-1.8133,-1.8124,-1.8114,-1.8107,-1.8095,-1.8085,-1.8081,-1.808,-1.8068,-1.8071,-1.8071,-1.807,-1.8063,-1.8062,-1.8062,-1.8067,-1.8067,-1.8067,0,0,-1.8196,-1.8189,-1.8184,-1.8176,-1.8164,-1.8156,-1.8155,-1.8141,-1.8136,-1.8126,-1.8118,-1.811,-1.8095,-1.8086,-1.808,-1.8076,-1.807,-1.8073,-1.8075,-1.8067,-1.8067,-1.8067,-1.8064,-1.8063,-1.8073,-1.8073,-1.8073,0,-1.8202,-1.8191,-1.8182,-1.8174,-1.8167,-1.8158,-1.8151,-1.8144,-1.813,-1.8125,-1.8124,-1.8103,-1.8095,-1.8082,-1.8081,-1.8076,-1.8073,-1.8075,-1.8068,-1.8068,-1.8067,-1.8064,-1.8063,-1.8073,-1.8073,-1.8073,-1.8073,0,-1.8198,-1.819,-1.8187,-1.8173,-1.8166,-1.8159,-1.8147,-1.8141,-1.8135,-1.8127,-1.8115,-1.8104,-1.8092,-1.8088,-1.8083,-1.8074,-1.8073,-1.807,-1.8068,-1.8067,-1.8064,-1.8063,-1.8074,-1.8073,-1.8073,-1.8073,0,0,-1.8209,-1.8188,-1.8187,-1.8179,-1.8164,-1.8157,-1.8149,-1.8137,-1.8131,-1.8121,-1.8112,-1.8098,-1.8095,-1.8087,-1.808,-1.8074,-1.8069,-1.8071,-1.8071,-1.807,-1.8057,-1.8058,-1.8057,-1.8065,-1.8065,-1.8065,-1.8057,0,-1.8208,-1.8193,-1.8183,-1.8172,-1.8163,-1.8153,-1.8145,-1.8134,-1.8126,-1.8116,-1.8107,-1.8096,-1.8093,-1.8088,-1.8082,-1.8071,-1.8066,-1.8072,-1.8056,-1.8056,-1.8059,-1.8056,-1.8058,-1.8051,-1.8056,-1.8056,-1.8056,0,-1.8206,-1.8195,-1.8183,-1.8167,-1.8163,-1.8156,-1.8143,-1.8134,-1.8121,-1.8115,-1.8105,-1.8098,-1.8087,-1.8085,-1.8069,-1.8073,-1.8066,-1.8059,-1.8058,-1.8056,-1.8055,-1.8052,-1.8049,-1.8048,-1.8054,-1.8054,-1.8054,0,-1.8213,-1.8196,-1.8185,-1.8179,-1.8161,-1.8156,-1.8148,-1.8134,-1.8127,-1.8115,-1.8109,-1.8096,-1.8088,-1.8078,-1.8066,-1.8066,-1.805,-1.8048,-1.8043,-1.8043,-1.804,-1.804,-1.8034,-1.8037,-1.8037,-1.8037,-1.8037,0,-1.8213,-1.8205,-1.8188,-1.8181,-1.8172,-1.816,-1.815,-1.8141,-1.8129,-1.8119,-1.811,-1.8101,-1.8086,-1.8075,-1.8065,-1.8052,-1.8049,-1.8043,-1.804,-1.8043,-1.8044,-1.8038,-1.8037,-1.8037,-1.8037,-1.8037,-1.8037,0,-1.8219,-1.8207,-1.8195,-1.8178,-1.8173,-1.8167,-1.8151,-1.8144,-1.8134,-1.8122,-1.8118,-1.8102,-1.8088,-1.8076,-1.8057,-1.8051,-1.8036,-1.8034,-1.8041,-1.8039,-1.8034,-1.8035,-1.8024,-1.8021,-1.8027,-1.8027,-1.8027,0,-1.822,-1.8213,-1.8195,-1.8188,-1.818,-1.8169,-1.816,-1.8147,-1.8139,-1.8122,-1.8116,-1.8101,-1.8089,-1.8066,-1.8053,-1.8038,-1.8034,-1.8031,-1.8032,-1.8034,-1.8032,-1.8032,-1.803,-1.8031,-1.8031,-1.8031,-1.8031,0,-1.8221,-1.8215,-1.8204,-1.819,-1.818,-1.8168,-1.8156,-1.8151,-1.8135,-1.8126,-1.8111,-1.8101,-1.8081,-1.8066,-1.8049,-1.804,-1.8032,-1.8031,-1.8029,-1.8031,-1.8035,-1.8031,-1.804,-1.8031,-1.8031,-1.8031,-1.8031,-1.8031,-1.8224,-1.8216,-1.8202,-1.8189,-1.8178,-1.8166,-1.8158,-1.8146,-1.8134,-1.8117,-1.811,-1.8094,-1.8079,-1.8055,-1.8045,-1.8032,-1.8031,-1.8028,-1.8027,-1.8026,-1.8026,-1.8038,-1.8029,-1.8029,-1.8029,-1.8029,-1.8029,0,-1.8223,-1.8213,-1.8201,-1.8184,-1.8173,-1.8167,-1.8152,-1.8143,-1.813,-1.8116,-1.8104,-1.8085,-1.807,-1.8054,-1.8037,-1.803,-1.8026,-1.8026,-1.8026,-1.8023,-1.8029,-1.8032,-1.8029,-1.8029,-1.8029,-1.8029,-1.8029,-1.8029,-1.8222,-1.8209,-1.82,-1.8181,-1.8171,-1.8156,-1.8147,-1.8136,-1.8124,-1.8105,-1.8092,-1.8081,-1.8066,-1.8048,-1.8032,-1.8028,-1.8022,-1.8022,-1.8017,-1.8023,-1.8023,-1.8023,-1.8026,-1.8021,-1.8021,-1.8012,-1.8012,-1.8012]}]]